Regional Weather Roundup
Issued by NWS Huntsville, AL

Home | Current Version | Previous Version | Text Only | Print | Product List | Glossary On
Versions: 1 2 3 4 5 6 7 8 9 10 11 12 13 14 15 16 17 18 19 20 21 22 23 24 25 26 27 28 29 30 31 32 33 34 35 36 37 38 39 40 41 42 43 44 45 46 47 48 49 50
000
ASUS44 KHUN 211510
RWRHUN

WEATHER ROUNDUP FOR THE TENNESSEE VALLEY
NATIONAL WEATHER SERVICE HUNTSVILLE AL
900 AM CST WED FEB 21 2018

ALZ001>004-211600-
NORTHWEST ALABAMA

CITY           SKY/WX    TMP DP  RH WIND       PRES   REMARKS
SHOALS AIRPORT FAIR      74  64  71 S22G29    30.29R
$$

ALZ005>007-016-211600-
NORTH CENTRAL ALABAMA

CITY           SKY/WX    TMP DP  RH WIND       PRES   REMARKS
DECATUR AP     CLOUDY    70  67  90 S14       30.33R
HUNTSVILLE AP  LGT RAIN  69  68  96 S8        30.33R
MERIDIANVILLE  RAIN      67  66  96 S6        30.34R FOG
REDSTONE ARSN  CLOUDY    69  67  96 S12       30.33R
VINEMONT AP    CLOUDY    68  65  92 S7        30.36R
$$

ALZ008>010-211600-
NORTHEAST ALABAMA

CITY           SKY/WX    TMP DP  RH WIND       PRES   REMARKS
FORT PAYNE     CLOUDY    70  63  78 MISG      30.37S
SCOTTSBORO AP  CLOUDY    72  66  83 S9G18     30.36R
$$

TNZ076-096-097-211600-
SOUTHEASTERN MIDDLE TENNESSEE

CITY           SKY/WX    TMP DP  RH WIND       PRES   REMARKS
TULLAHOMA      CLOUDY    70  64  83 S10       30.33R
WINCHESTER     CLOUDY    66  64  94 S6        30.36R
$$

...SURROUNDING SITES...

CITY           SKY/WX    TMP DP  RH WIND       PRES   REMARKS
ATLANTA        CLOUDY    69  67  93 S8        30.42R
ANNISTON       CLOUDY    71  65  81 S8        30.39R
BIRMINGHAM     PTSUNNY   71  64  78 S8G17     30.38R
CHATTANOOGA    CLOUDY    70  63  78 S8        30.38R
CORINTH        DRIZZLE   61  57  88 N9G24     30.28R
DALTON         CLOUDY    66  64  94 S7        30.41R
GADSDEN        CLOUDY    72  67  84 S8        30.38R
GOLDEN TRNGL   CLOUDY    73  68  83 S14G21    30.30R
HALEYVILLE     CLOUDY    68  68 100 S7        30.35R
JACKSON TN     LGT RAIN  50  49  96 N16       30.35R
MEMPHIS        LGT RAIN  48  46  93 N13       30.35R
NASHVILLE      PTSUNNY   74  63  68 S13       30.29R
OXFORD MS      CLOUDY    64  59  82 NW18      30.28R
ROME           CLOUDY    70  67  90 S6        30.39R
SAVANNAH       CLOUDY    59  59 100 N15       30.28R FOG
TUPELO         CLOUDY    72  66  81 S14G23    30.27R
TUSCALOOSA     CLOUDY    71  68  90 S9        30.33R
$$

...GULF COAST WEATHER...

CITY           SKY/WX    TMP DP  RH WIND       PRES   REMARKS
GULFPORT       FOG       72  72 100 SE20      30.26R VSB 3/4
PASCAGOULA     CLOUDY    74  69  85 SE13      30.29R
MOBILE         CLOUDY    73  69  87 SE13      30.31R
GULF SHORES    CLOUDY    73  72  99 E10       30.32R
PENSACOLA      FAIR      75  68  78 SE13      30.32
DESTIN         FAIR      75  67  76 SE12      30.34R
PANAMA CITY    PTSUNNY   75  69  81 SE16G24   30.36S
APPALACHICOLA  PTSUNNY   74  71  91 SE14      30.38R
$$




USA.gov is the U.S. government's official web portal to all federal, state and local government web resources and services.